Location: Vienna
(48.2082°N, 16.3738°E)
Time: 00:44:48
(UTC+02:00)

ISS - Pass Details

Date: 17 July 2018
Orbit: 402 x 408 km, 51.6° (Epoch: 16 July)

Event Time Altitude Azimuth Distance (km) Brightness Sun altitude
Exits shadow 00:08:36 18° 79° (E) 1,065 -1.7 -19.6°
Drops below altitude 10° 00:09:38 10° 73° (ENE) 1,468 -1.0 -19.6°
Sets 00:11:45 0° 68° (ENE) 2,332 0.2 -19.7°
